FW5264 Chilmark MA US current weather conditions

sailwx.info

Wind from 209 at 4 knots

Air temperature 11.1° C
Dewpoint 11.0° C

Last reported at 2019-Dec-09 22:04 UTC.
Time now 2019-Dec-09 23:06 UTC

Location: N 41°23' W 070°41'.
View on Google Maps.

See reports from other nearby stations

  
Tides and Currents Weather Stations Pressure Air Temp Water Temp Dewpoint Dewpoint Depression Visibility Wind Speed Wind Dir Waves Ship Positions
date/time (UTC)wind fromknots sea level pressurealtimeterstation pressurevisibilityair tempwater tempwave heightnotes
2019-Dec-09 22:04 209 4 11.1
2019-Dec-09 21:55 201 2 10.6
2019-Dec-09 21:46 200 1 10.6
2019-Dec-09 21:36 236 0 10.6
2019-Dec-09 21:27 233 1 10.6
2019-Dec-09 21:18 200 1 10.6
2019-Dec-09 21:08 172 0 11.1
2019-Dec-09 20:59 186 3 11.1
2019-Dec-09 20:50 195 5 11.1
2019-Dec-09 20:40 196 3 10.6
2019-Dec-09 20:30 191 4 10.6
2019-Dec-09 20:21 189 4 10.6
2019-Dec-09 20:11 177 4 10.6
2019-Dec-09 20:02 169 6 10.6
2019-Dec-09 19:53 158 4 10.6
2019-Dec-09 19:43 183 6 10.0
2019-Dec-09 19:34 183 4 10.0
2019-Dec-09 19:25 165 5 10.0
2019-Dec-09 19:15 147 4 10.0
2019-Dec-09 19:06 166 6 10.6
2019-Dec-09 18:56 160 6 10.6
2019-Dec-09 18:47 168 5 10.6
2019-Dec-09 18:38 173 3 10.6
2019-Dec-09 18:28 167 3 11.1
2019-Dec-09 18:19 161 4 11.1
2019-Dec-09 18:09 181 6 10.6
2019-Dec-09 17:59 179 5 10.6
2019-Dec-09 17:50 191 5 10.6
2019-Dec-09 17:22 168 3 10.6
2019-Dec-09 17:12 169 4 10.6
2019-Dec-09 17:02 171 4 10.6
2019-Dec-09 16:53 172 5 10.6
2019-Dec-09 16:43 171 5 10.6
2019-Dec-09 16:33 169 5 10.6
2019-Dec-09 16:23 191 5 10.6
2019-Dec-09 16:14 191 8 10.6
2019-Dec-09 16:04 164 4 10.6
2019-Dec-09 15:55 141 4 10.6
2019-Dec-09 15:45 165 6 10.6
2019-Dec-09 15:35 174 5 10.6
2019-Dec-09 15:26 186 6 10.0
2019-Dec-09 15:16 182 6 10.0
2019-Dec-09 15:07 165 6 10.0
2019-Dec-09 14:58 169 4 10.0
2019-Dec-09 14:48 172 4 9.4
2019-Dec-09 14:39 181 3 9.4
2019-Dec-09 14:30 151 2 9.4
2019-Dec-09 14:20 138 1 9.4
2019-Dec-09 14:10 177 2 9.4
2019-Dec-09 14:00 198 3 9.4
2019-Dec-09 13:51 179 2 9.4
2019-Dec-09 13:42 194 1 9.4
2019-Dec-09 13:32 150 9.4
2019-Dec-09 13:22 193 9.4
2019-Dec-09 13:12 202 0 9.4
2019-Dec-09 13:03 204 2 9.4
2019-Dec-09 12:53 195 1 9.4
2019-Dec-09 12:44 203 1 9.4
2019-Dec-09 12:35 178 2 9.4
2019-Dec-09 12:25 186 1 9.4
2019-Dec-09 12:15 195 1 9.4
2019-Dec-09 12:06 177 1 9.4
2019-Dec-09 11:56 198 1 8.9
2019-Dec-09 11:47 190 2 8.9
2019-Dec-09 11:38 205 2 8.9
2019-Dec-09 11:28 206 1 8.9
2019-Dec-09 11:19 183 1 8.9
2019-Dec-09 11:10 209 1 8.9
2019-Dec-09 11:00 202 0 8.9
2019-Dec-09 10:50 181 1 8.9
2019-Dec-09 10:41 183 2 8.9
2019-Dec-09 10:31 181 5 8.9
2019-Dec-09 10:22 200 1 8.9
2019-Dec-09 10:12 172 1 8.9
2019-Dec-09 10:02 171 1 8.3
2019-Dec-09 09:53 177 0 8.3
2019-Dec-09 09:44 203 1 8.3
2019-Dec-09 09:35 225 8.3
2019-Dec-09 09:25 180 8.3
2019-Dec-09 09:16 216 0 8.3
2019-Dec-09 09:07 200 0 8.3
2019-Dec-09 08:58 140 1 8.3
2019-Dec-09 08:49 202 0 8.3
2019-Dec-09 08:39 191 0 8.3
2019-Dec-09 08:30 191 1 8.3
2019-Dec-09 08:21 194 2 8.3
2019-Dec-09 08:11 219 2 7.8
2019-Dec-09 08:01 208 1 7.8
2019-Dec-09 07:51 196 2 7.8
2019-Dec-09 07:42 186 2 7.8
2019-Dec-09 07:32 208 1 7.8
2019-Dec-09 07:23 186 3 7.2
2019-Dec-09 07:13 189 3 7.2
2019-Dec-09 07:03 208 2 7.2
2019-Dec-09 06:53 192 2 7.2
2019-Dec-09 06:43 196 4 7.2
2019-Dec-09 06:33 186 2 7.2
2019-Dec-09 06:23 206 3 7.2
2019-Dec-09 06:14 210 2 7.2
2019-Dec-09 06:04 196 1 7.2
2019-Dec-09 05:54 208 3 7.2
2019-Dec-09 05:45 208 1 7.2
2019-Dec-09 05:36 203 3 7.2
2019-Dec-09 05:26 206 2 7.2
2019-Dec-09 05:17 204 6 6.7
2019-Dec-09 05:07 201 2 6.7
2019-Dec-09 04:58 185 3 6.7
2019-Dec-09 04:49 193 2 6.7
2019-Dec-09 04:39 187 4 6.7
2019-Dec-09 04:29 187 6 6.7
2019-Dec-09 04:20 196 3 6.7
2019-Dec-09 04:10 200 2 6.7
2019-Dec-09 04:00 207 3 6.7
2019-Dec-09 03:50 199 5 6.7
2019-Dec-09 03:40 194 5 6.7
2019-Dec-09 03:30 177 4 6.1
2019-Dec-09 03:21 188 3 6.1
2019-Dec-09 03:12 201 4 6.1
2019-Dec-09 03:02 209 4 6.1
2019-Dec-09 02:52 185 5 6.1
2019-Dec-09 02:43 194 5 6.1
2019-Dec-09 02:34 196 3 5.6
2019-Dec-09 02:25 188 2 5.6
2019-Dec-09 02:15 192 3 5.6
2019-Dec-09 02:05 197 3 5.6
2019-Dec-09 01:56 192 2 5.6
2019-Dec-09 01:47 200 4 5.6
2019-Dec-09 01:37 181 4 5.6
2019-Dec-09 01:27 189 2 5.0
2019-Dec-09 01:17 197 3 5.0
2019-Dec-09 01:08 191 3 5.0
2019-Dec-09 00:58 188 5 5.0
2019-Dec-09 00:48 192 3 5.0
2019-Dec-09 00:38 191 3 4.4
2019-Dec-09 00:29 177 6 4.4
2019-Dec-09 00:19 192 3 4.4
2019-Dec-09 00:10 173 2 4.4
2019-Dec-09 00:00 184 2 3.9
2019-Dec-08 23:50 181 4 3.9
2019-Dec-08 23:40 190 2 3.9
2019-Dec-08 23:31 172 5 3.3
2019-Dec-08 23:22 179 2 3.3
2019-Dec-08 23:12 183 3 3.3
2019-Dec-08 23:03 180 2 3.3
2019-Dec-08 22:53 191 4 3.3
2019-Dec-08 22:43 190 2 3.3
2019-Dec-08 22:34 193 1 3.3
2019-Dec-08 22:24 210 2 2.8
2019-Dec-08 22:14 209 2 2.8
2019-Dec-08 22:05 232 1 2.8
2019-Dec-08 21:55 208 1 2.8
2019-Dec-08 21:45 216 2 2.2
2019-Dec-08 21:36 210 1 2.2
2019-Dec-08 21:26 209 2 2.2
2019-Dec-08 21:16 182 3 2.2
2019-Dec-08 21:06 216 1 2.2
2019-Dec-08 20:57 205 2.2
2019-Dec-08 20:48 189 2 2.2
2019-Dec-08 20:39 196 4 2.2
2019-Dec-08 20:29 215 2 2.2
2019-Dec-08 20:20 205 2.2
2019-Dec-08 20:10 211 0 2.2
2019-Dec-08 20:01 198 2 2.2
2019-Dec-08 19:51 220 2 2.2
2019-Dec-08 19:42 212 3 2.2
2019-Dec-08 19:33 197 2 2.2
2019-Dec-08 19:23 201 0 2.2
2019-Dec-08 19:13 206 3 2.2
2019-Dec-08 19:03 213 2 2.2
2019-Dec-08 18:53 176 2 2.8
2019-Dec-08 18:44 204 4 2.8
2019-Dec-08 18:34 212 1 2.8
2019-Dec-08 18:24 161 2 2.8
2019-Dec-08 18:15 205 1 2.8
2019-Dec-08 18:05 211 1 2.8
2019-Dec-08 17:55 173 0 2.8
2019-Dec-08 17:46 177 3 2.8
2019-Dec-08 17:36 207 2 2.8
2019-Dec-08 17:26 166 2 2.2
2019-Dec-08 17:17 225 1 2.2
2019-Dec-08 17:07 178 2 1.7
2019-Dec-08 16:58 202 1 1.7
2019-Dec-08 16:48 228 0 1.7
2019-Dec-08 16:39 202 0 1.7
2019-Dec-08 16:29 214 1 1.7
2019-Dec-08 16:19 185 1 1.1
2019-Dec-08 16:09 173 1 1.1
2019-Dec-08 16:00 187 2 1.1
2019-Dec-08 15:51 210 1 0.6
2019-Dec-08 15:41 186 1 0.6
2019-Dec-08 15:32 162 3 0.6
2019-Dec-08 15:22 166 0 0.6
2019-Dec-08 15:13 172 3 0.6
2019-Dec-08 15:04 187 3 0.6
2019-Dec-08 14:54 156 0 0.6
2019-Dec-08 14:44 252 0 0.6
2019-Dec-08 14:34 210 -0.0
2019-Dec-08 14:25 135 -0.6
2019-Dec-08 14:15 225 -0.6
2019-Dec-08 14:05 037 -0.6
2019-Dec-08 13:56 112 -0.6
2019-Dec-08 13:47 112 -1.1
2019-Dec-08 13:37 112 0 -1.7
2019-Dec-08 13:27 202 0 -1.7
2019-Dec-08 13:17 292 -2.8
2019-Dec-08 13:08 292 -3.3
2019-Dec-08 12:58 292 -3.9
2019-Dec-08 12:49 292 -4.4
2019-Dec-08 12:40 292 -5.0
2019-Dec-08 12:30 292 -5.6
2019-Dec-08 12:20 292 -6.7
2019-Dec-08 12:10 292 0 -7.2
2019-Dec-08 12:01 292 0 -7.2
2019-Dec-08 11:52 292 -7.2
2019-Dec-08 11:43 292 -6.7
2019-Dec-08 11:33 292 0 -6.1
2019-Dec-08 11:24 292 0 -6.7
2019-Dec-08 11:15 292 -6.7
2019-Dec-08 11:05 292 0 -6.7
2019-Dec-08 10:56 292 -6.7
2019-Dec-08 10:46 292 0 -6.1
2019-Dec-08 10:36 315 -6.7
2019-Dec-08 10:27 315 0 -6.7
2019-Dec-08 10:17 337 -6.1
2019-Dec-08 10:07 360 -6.1
2019-Dec-08 09:58 360 -5.6
2019-Dec-08 09:49 347 -5.6
2019-Dec-08 09:39 311 0 -5.6
2019-Dec-08 09:30 360 -5.6
2019-Dec-08 09:20 322 0 -5.6
2019-Dec-08 09:10 355 -5.6
2019-Dec-08 09:00 358 -5.0
2019-Dec-08 08:51 322 1 -5.0
2019-Dec-08 08:42 315 -5.0
2019-Dec-08 08:32 315 -5.0
2019-Dec-08 08:23 360 -5.0
2019-Dec-08 08:13 360 -5.0
2019-Dec-08 08:03 353 -4.4
2019-Dec-08 07:53 351 -4.4
2019-Dec-08 07:44 045 -4.4
2019-Dec-08 07:34 003 -4.4
2019-Dec-08 07:25 360 -4.4
2019-Dec-08 07:15 008 0 -4.4
2019-Dec-08 07:06 360 0 -3.9
2019-Dec-08 06:56 044 -3.9
2019-Dec-08 06:46 354 0 -3.9
2019-Dec-08 06:36 315 -3.9
2019-Dec-08 06:26 003 0 -3.9
2019-Dec-08 06:16 012 0 -3.9
2019-Dec-08 06:07 350 0 -3.9
2019-Dec-08 05:58 328 1 -3.9
2019-Dec-08 05:49 033 -3.9
2019-Dec-08 05:39 289 0 -3.9
2019-Dec-08 05:29 005 0 -3.3
2019-Dec-08 05:20 343 1 -3.3
2019-Dec-08 05:11 360 0 -3.3
2019-Dec-08 05:01 019 1 -3.3
2019-Dec-08 04:51 325 0 -3.3
2019-Dec-08 04:41 359 1 -3.3
2019-Dec-08 04:32 008 1 -2.8
2019-Dec-08 04:22 315 0 -2.8
2019-Dec-08 04:12 037 0 -3.3
2019-Dec-08 04:03 038 1 -3.3
2019-Dec-08 03:53 356 0 -2.8
2019-Dec-08 03:43 009 1 -2.8
2019-Dec-08 03:33 323 0 -2.8
2019-Dec-08 03:24 320 2 -2.2
2019-Dec-08 03:14 002 1 -2.2
2019-Dec-08 03:04 342 2 -2.2
2019-Dec-08 02:54 343 1 -2.2
2019-Dec-08 02:44 347 4 -2.2
2019-Dec-08 02:34 003 0 -2.2
2019-Dec-08 02:25 352 5 -2.2
2019-Dec-08 02:16 013 1 -2.2
2019-Dec-08 02:06 356 4 -2.2
2019-Dec-08 01:57 008 3 -2.2
2019-Dec-08 01:48 031 -2.2
2019-Dec-08 01:38 331 2 -1.7
2019-Dec-08 01:29 357 3 -1.7
2019-Dec-08 01:20 338 3 -1.7
2019-Dec-08 01:10 305 2 -1.7
2019-Dec-08 01:01 288 1 -1.7
2019-Dec-08 00:51 354 3 -1.7
2019-Dec-08 00:41 312 6 -1.7
2019-Dec-08 00:32 346 2 -1.7
2019-Dec-08 00:23 014 1 -1.7
2019-Dec-08 00:13 327 3 -1.7
2019-Dec-08 00:03 263 0 -1.1
2019-Dec-07 23:54 325 2 -1.7
2019-Dec-07 23:44 335 0 -1.1
2019-Dec-07 23:34 321 2 -1.1
2019-Dec-07 23:25 316 3 -1.1
2019-Dec-07 23:15 271 -1.7
2019-Dec-07 23:06 006 1 -1.1